OPS 4682 DEB, 38421

Orbit data source: Space-Track

OPS 4682 DEB, 38421 is space debris in LEO originally from a launch on Sat, 03 Apr 1965 UTC launched from the Air Force Western Test Range (AFWTR). Debris objects in space refer to the collection of defunct objects orbiting the Earth. Examples of debris include non-operational satellites, rocket bodies, and fragments generated from explosions, collisions, or faulty payload assembly.

Loading next visibility...
Identifier
38421, 1965-027EA
Orbit
LEO
Country
Flag of USUS
Related business
Manufacturer
Unknown
Mission
Spacecraft
Bus & Motor
Unknown
Mass
Unknown
Launch date (UTC)
1965-04-03 (61 years ago)
Launch vehicle
Unknown
Launch site
Air Force Western Test Range (AFWTR)
Object type
Payload
Rocket body
Debris
Shape & HBR
Unknown shape, 0.1 m
Radar Cross Section
Medium (>0.1 m² and <1 m²)

Expand to show TLE details & history
Last TLE update: 1 day ago

TLE from 1 day ago
0 OPS 4682 DEB
1 38421U 65027EA  26150.01555716  .00001014  00000-0  28905-2 0  9994
2 38421  90.2619   8.5874 0037245 346.1332  13.8770 13.09946135666243
Epoch: 2026-05-30T00:22Z
TLE epoch observation values (Epoch: 2026-05-30T00:22:24.138Z)
Latitude
Longitude
115.44917°
Altitude
1,198.778 km
Speed
7.268 km/s
True Right ascension
00h 34m 20s
True Declination
0° 00' 00"
Sunlit
Object was in daylight at epoch
Visualization orbit readout
Latitude
Unknown
Longitude
Unknown
Altitude
Unknown
Speed
Unknown
Apparent Right ascension
Unknown
Apparent Declination
Unknown
Sunlit
N/A
Visualization observer readout
Local Sidereal Time
15:25:33
Azimuth
Unknown
Elevation
Unknown
Doppler factor
Unknown
Orbital elements
Apogee altitude
1,248.777 km
Perigee altitude
1,192.175 km
Semi-major axis
7,598.613 km
Eccentricity
0.00372
Inclination
90.2619°
RAAN
8.5874°
Arg. of periapsis
346.1332°
True anomaly
13.97983°
Mean anomaly
13.877°
Eccentric anomaly
13.92837°
Mean motion
3.27674 °/min
Orbital period
109.87 mins
BSTAR
0.0028905
Loading maneuver chart data...
Computing Atmospheric mass density...
Loading historical data...
Loading historical data...
Loading historical data...
Loading historical data...
Loading historical data...
Loading historical data...
Loading historical data...

Documentation

Showing up to 5 results
|